Regional Weather Roundup
Issued by NWS Little Rock, AR

Home | Current Version | Previous Version | Text Only | Print | Product List | Glossary Off
Versions: 1 2 3 4 5 6 7 8 9 10 11 12 13 14 15 16 17 18 19 20 21 22 23 24 25 26 27 28 29 30 31 32 33 34 35 36 37 38 39 40 41 42 43 44 45 46 47 48 49 50

000
ASUS44 KLZK 020905
RWRLZK

WEATHER ROUNDUP FOR ARKANSAS
NATIONAL WEATHER SERVICE LITTLE ROCK AR
400 AM CDT SUN AUG 02 2015

NOTE: "FAIR" INDICATES FEW OR NO CLOUDS BELOW 12,000 FEET WITH NO
SIGNIFICANT WEATHER AND/OR OBSTRUCTIONS TO VISIBILITY.

ARZ001-003-010-029-021000-
NORTHWEST ARKANSAS

CITY           SKY/WX    TMP DP  RH WIND       PRES   REMARKS
FAYETTEVILLE   PTCLDY    66  66 100 S6        30.01F
FORT SMITH     PTCLDY    74  69  85 E3        29.96S
HARRISON       CLEAR     68  64  87 CALM      30.01F
BENTONVILLE    PTCLDY    70  66  88 CALM      30.01S
ROGERS         PTCLDY    71  70  96 SE3       30.01F
SILOAM SPGS    PTCLDY    68  61  77 CALM      29.99S
HIGHFILL       PTCLDY    70  68  93 CALM      30.00F
$$

ARZ004-005-016-021000-
NORTH CENTRAL ARKANSAS

CITY           SKY/WX    TMP DP  RH WIND       PRES   REMARKS
BATESVILLE     CLEAR     68  66  94 CALM      29.97S
FLIPPIN        CLEAR     68  64  88 NE3       29.97S
MTN HOME       CLEAR     69  67  93 CALM      29.98F
$$

ARZ040-041-021000-
WEST CENTRAL ARKANSAS

CITY           SKY/WX    TMP DP  RH WIND       PRES   REMARKS
MENA           CLEAR     64  63  94 CALM      30.01S
MOUNT IDA      CLEAR     67  65  93 CALM      29.97S
$$

ARZ009-017-025-026-028-021000-
NORTHEAST ARKANSAS

CITY           SKY/WX    TMP DP  RH WIND       PRES   REMARKS
JONESBORO      CLEAR     70  68  93 CALM      29.95F
NEWPORT        CLEAR     74  73  96 CALM      29.97S
WALNUT RIDGE   CLEAR     73  70  88 CALM      29.96S
BLYTHEVILLE    CLEAR     75  72  90 CALM      29.96S
$$

ARZ022-023-033-042-044-021000-
CENTRAL ARKANSAS

CITY           SKY/WX    TMP DP  RH WIND       PRES   REMARKS
LITTLE ROCK    MOCLDY    73  68  84 W3        29.96S
N LITTLE ROCK    N/A     78  65  65 NW3       29.96S
JACKSONVILLE   CLEAR     68  65  91 NW1       29.96S
SEARCY         CLEAR     68  67  96 N3        29.97F
HOT SPRINGS    CLEAR     70  64  81 CALM      29.98S
RUSSELLVILLE   CLEAR     69  66  90 CALM      29.96F
$$

ARZ036-021000-
EAST ARKANSAS

CITY           SKY/WX    TMP DP  RH WIND       PRES   REMARKS
WEST MEMPHIS   CLEAR     71  71 100 CALM      29.94F
$$

ARZ050-053-066-070-073-021000-
SOUTHWEST ARKANSAS

CITY           SKY/WX    TMP DP  RH WIND       PRES   REMARKS
ARKADELPHIA    FAIR      68  68 100 CALM      29.96S
CAMDEN         CLEAR     64  63  94 CALM      29.95F FOG
TEXARKANA      CLEAR     70  65  84 CALM      29.96S
EL DORADO      PTCLDY    66  62  87 CALM      29.95F
DE QUEEN       CLEAR     67  66  97 CALM      29.94F FOG
$$

ARZ056-057-069-021000-
SOUTHEAST ARKANSAS

CITY           SKY/WX    TMP DP  RH WIND       PRES   REMARKS
PINE BLUFF     CLEAR     69  66  90 CALM      29.95F
STUTTGART      CLEAR     75  66  73 CALM      29.95S
MONTICELLO     CLEAR     69  67  93 CALM      29.94F

$$





USA.gov is the U.S. government's official web portal to all federal, state and local government web resources and services.